User: anonymous   Login
Location: North Smoke Tower Site
(30.5430°N, 82.3390°W)
Time: 16:03:58
(UTC-04:00)
Language:

Cosmos 1980 Rocket - Orbit

View from above orbital plane
View from above orbital plane
View from above satellite
View from above satellite

Ground track
Ground track

The orbit data is extracted from the following two-line orbital elements,

1 19650U 88102B   15089.15401100 -.00000090  00000-0 -21560-4 0  9994
2 19650 070.9980 278.3047 0015242 327.2350 032.7826 14.15708146361345
Epoch (UTC): 30 March 2015 03:41:46
Eccentricity: 0.0015242
inclination: 70.9980°
perigee height: 829 km
apogee height: 851 km
right ascension of ascending node: 278.3047°
argument of perigee: 327.2350°
revolutions per day: 14.15708146
mean anomaly at epoch: 32.7826°
orbit number at epoch: 36134

The dashed part of the orbit path shows where the satellite is in the earth's shadow,  

DLR